Weather History for Whiteville, NC

Change the Weather History Date:

Sunday, January 6, 2013

  Actual Average (KLBT) Record (KLBT)
Temperature  
Mean Temperature 44 °F 43 °F  
Max Temperature 49 °F 53 °F 75 °F (2005)
Min Temperature 40 °F 33 °F 23 °F (2014)
Degree Days  
Heating Degree Days 20 22  
Month to date heating degree days 131  
Since 1 July heating degree days 1181  
Cooling Degree Days 0 0  
Month to date cooling degree days 0  
Year to date cooling degree days 0  
Moisture  
Dew Point 41 °F    
Average Humidity 84    
Maximum Humidity 95    
Minimum Humidity 76    
Precipitation  
Precipitation 0.00 in 0.09 in 0.79 in (2002)
Month to date precipitation 0.52  
Year to date precipitation 0.52  
Sea Level Pressure  
Sea Level Pressure 30.17 in    
Wind  
Wind Speed 0 mph (SSW)    
Max Wind Speed 5 mph    
Max Gust Speed -    
Visibility 10 miles    
Events Rain    
T = Trace of Precipitation, MM = Missing Value Source: NWS Daily Summary

Daily Weather History Graph

Daily Weather History Graph

Search for Another Location

Airport:

Trip Planner

Search our weather history database for the weather conditions in past years. The results will help you decide how hot, cold, wet, or windy it might be!

Date:

Astronomy

Jan. 06, 2013 Rise Set
Actual Time 7:21 AM EST 5:20 PM EST
Civil Twilight 6:54 AM EST 5:47 PM EST
Nautical Twilight 6:22 AM EST 6:19 PM EST
Astronomical Twilight 5:52 AM EST 6:49 PM EST
Moon 1:39 AM EST (1/6) 12:41 PM EST (1/6)
Length of Visible Light 10h 53m
Length of Day
9h 58m
Waning Crescent, 33% of the Moon is Illuminated
Jan 6
Waning Crescent
Jan 11
New
Jan 18
First Quarter
Jan 26
Full
Feb 3
Last Quarter

Hourly Weather History & Observations

Time (EST) Temp. Windchill Dew Point Humidity Pressure Visibility Wind Dir Wind Speed Gust Speed Precip Events Conditions
12:15 AM 40.3 °F - 36.5 °F 86% 30.28 in 10.0 mi Calm Calm - N/A   Clear
12:35 AM 41.0 °F - 36.3 °F 83% 30.28 in 10.0 mi Calm Calm - N/A   Clear
12:55 AM 41.0 °F - 36.7 °F 85% 30.27 in 10.0 mi Calm Calm - N/A   Clear
1:15 AM 40.8 °F - 37.4 °F 88% 30.26 in 10.0 mi Calm Calm - N/A   Clear
1:35 AM 42.4 °F - 35.6 °F 77% 30.26 in 10.0 mi Calm Calm - N/A   Clear
1:55 AM 42.4 °F - 35.8 °F 77% 30.25 in 10.0 mi Calm Calm - N/A   Clear
2:35 AM 43.0 °F - 36.5 °F 78% 30.24 in 10.0 mi Calm Calm - N/A Rain Light Rain
2:55 AM 42.4 °F - 37.2 °F 82% 30.24 in 10.0 mi Calm Calm - N/A   Light Drizzle
3:15 AM 42.8 °F - 37.4 °F 81% 30.24 in 10.0 mi Calm Calm - N/A   Mostly Cloudy
3:35 AM 43.0 °F - 38.1 °F 83% 30.23 in 10.0 mi Calm Calm - N/A   Mostly Cloudy
3:55 AM 43.2 °F - 38.7 °F 84% 30.22 in 10.0 mi Calm Calm - N/A   Mostly Cloudy
4:15 AM 43.2 °F - 39.0 °F 85% 30.22 in 10.0 mi Calm Calm - N/A   Scattered Clouds
4:35 AM 43.0 °F - 39.6 °F 88% 30.21 in 10.0 mi Calm Calm - N/A   Scattered Clouds
4:55 AM 43.0 °F - 40.3 °F 90% 30.21 in 10.0 mi Calm Calm - N/A   Mostly Cloudy
5:15 AM 43.3 °F - 40.5 °F 90% 30.21 in 10.0 mi Calm Calm - N/A   Mostly Cloudy
5:35 AM 43.3 °F - 40.1 °F 88% 30.21 in 10.0 mi Calm Calm - N/A   Mostly Cloudy
5:55 AM 43.7 °F - 40.3 °F 88% 30.20 in 10.0 mi Calm Calm - N/A   Overcast
6:35 AM 44.1 °F - 40.8 °F 88% 30.20 in 10.0 mi Calm Calm - N/A   Scattered Clouds
6:55 AM 44.1 °F - 40.3 °F 87% 30.21 in 10.0 mi Calm Calm - N/A   Scattered Clouds
7:15 AM 44.2 °F - 40.3 °F 86% 30.21 in 10.0 mi Calm Calm - N/A   Mostly Cloudy
7:35 AM 44.6 °F - 40.3 °F 85% 30.21 in 10.0 mi Calm Calm - N/A   Overcast
7:55 AM 45.0 °F - 39.6 °F 81% 30.21 in 10.0 mi Calm Calm - N/A   Overcast
8:15 AM 45.0 °F - 39.6 °F 81% 30.21 in 10.0 mi Calm Calm - N/A   Overcast
8:35 AM 45.3 °F - 39.7 °F 81% 30.21 in 10.0 mi Calm Calm - N/A   Mostly Cloudy
8:55 AM 45.7 °F - 39.2 °F 78% 30.21 in 10.0 mi Calm Calm - N/A   Overcast
9:35 AM 46.6 °F - 39.4 °F 76% 30.23 in 10.0 mi Calm Calm - N/A   Mostly Cloudy
9:55 AM 46.8 °F - 39.9 °F 77% 30.22 in 10.0 mi Calm Calm - N/A   Mostly Cloudy
10:15 AM 46.9 °F - 39.9 °F 77% 30.23 in 10.0 mi Calm Calm - N/A   Mostly Cloudy
10:35 AM 47.3 °F - 40.8 °F 78% 30.23 in 10.0 mi Calm Calm - N/A   Scattered Clouds
10:55 AM 47.3 °F - 39.9 °F 76% 30.22 in 10.0 mi WNW 3.5 mph - N/A Rain Light Rain
11:15 AM 46.9 °F - 40.5 °F 78% 30.21 in 10.0 mi West 3.5 mph - N/A Rain Light Rain
11:35 AM 46.6 °F - 41.2 °F 81% 30.20 in 10.0 mi Calm Calm - N/A   Scattered Clouds
11:55 AM 46.0 °F 44.8 °F 41.5 °F 84% 30.19 in 10.0 mi West 3.5 mph - N/A   Mostly Cloudy
12:15 PM 45.7 °F - 42.8 °F 90% 30.17 in 5.0 mi Calm Calm - N/A   Light Drizzle
12:35 PM 46.0 °F - 43.7 °F 92% 30.17 in 7.0 mi Calm Calm - N/A   Light Drizzle
12:55 PM 46.2 °F - 44.1 °F 92% 30.16 in 5.0 mi Calm Calm - N/A   Mostly Cloudy
1:15 PM 46.6 °F - 44.1 °F 91% 30.15 in 10.0 mi SW 4.6 mph - N/A   Scattered Clouds
1:35 PM 46.6 °F - 43.7 °F 90% 30.13 in 10.0 mi South 3.5 mph - N/A   Clear
1:55 PM 46.9 °F - 43.7 °F 88% 30.13 in 10.0 mi Calm Calm - N/A Rain Light Rain
2:15 PM 47.7 °F - 43.9 °F 87% 30.12 in 10.0 mi South 4.6 mph - N/A   Mostly Cloudy
2:35 PM 48.0 °F - 42.8 °F 82% 30.12 in 10.0 mi Calm Calm - N/A   Mostly Cloudy
2:55 PM 48.4 °F - 42.6 °F 80% 30.11 in 10.0 mi Calm Calm - N/A   Overcast
3:15 PM 48.7 °F - 42.3 °F 78% 30.11 in 10.0 mi South 3.5 mph - N/A   Mostly Cloudy
3:35 PM 49.1 °F - 41.7 °F 76% 30.11 in 10.0 mi Calm Calm - N/A   Mostly Cloudy
3:55 PM 49.1 °F - 41.9 °F 76% 30.11 in 10.0 mi South 3.5 mph - N/A   Mostly Cloudy
4:15 PM 49.1 °F - 41.7 °F 76% 30.11 in 10.0 mi Calm Calm - N/A   Scattered Clouds
4:35 PM 49.1 °F - 42.1 °F 77% 30.10 in 10.0 mi Calm Calm - N/A   Clear
4:55 PM 49.1 °F - 42.3 °F 77% 30.10 in 10.0 mi Calm Calm - N/A   Mostly Cloudy
5:15 PM 49.1 °F - 42.8 °F 79% 30.09 in 10.0 mi Calm Calm - N/A   Mostly Cloudy
5:35 PM 49.1 °F - 42.8 °F 79% 30.09 in 10.0 mi SSE 3.5 mph - N/A   Mostly Cloudy
5:55 PM 48.9 °F - 42.8 °F 79% 30.08 in 10.0 mi South 3.5 mph - N/A   Scattered Clouds
6:15 PM 49.3 °F - 42.8 °F 78% 30.08 in 10.0 mi Calm Calm - N/A   Scattered Clouds
6:35 PM 48.4 °F - 43.2 °F 82% 30.08 in 10.0 mi Calm Calm - N/A   Scattered Clouds
6:55 PM 48.2 °F - 43.7 °F 84% 30.08 in 10.0 mi Calm Calm - N/A   Scattered Clouds
7:15 PM 47.5 °F - 43.7 °F 87% 30.09 in 10.0 mi Calm Calm - N/A   Clear
7:35 PM 47.3 °F - 44.1 °F 88% 30.09 in 10.0 mi Calm Calm - N/A   Scattered Clouds
7:55 PM 47.3 °F - 44.6 °F 90% 30.10 in 10.0 mi Calm Calm - N/A   Mostly Cloudy
8:15 PM 47.3 °F - 44.6 °F 90% 30.11 in 10.0 mi Calm Calm - N/A   Scattered Clouds
8:35 PM 47.1 °F - 44.6 °F 91% 30.12 in 10.0 mi Calm Calm - N/A   Clear
8:55 PM 46.9 °F - 44.2 °F 90% 30.11 in 10.0 mi Calm Calm - N/A   Scattered Clouds
9:15 PM 46.9 °F - 44.1 °F 90% 30.12 in 10.0 mi Calm Calm - N/A   Scattered Clouds
9:35 PM 46.4 °F - 44.1 °F 92% 30.11 in 10.0 mi Calm Calm - N/A   Clear
9:55 PM 46.6 °F - 44.2 °F 92% 30.13 in 10.0 mi Calm Calm - N/A   Clear
10:35 PM 46.4 °F - 43.9 °F 91% 30.14 in 10.0 mi Calm Calm - N/A   Clear
10:55 PM 45.7 °F - 43.7 °F 93% 30.14 in 10.0 mi Calm Calm - N/A   Clear
11:15 PM 45.7 °F - 43.5 °F 92% 30.15 in 10.0 mi Calm Calm - N/A   Clear
11:35 PM 45.1 °F - 43.7 °F 95% 30.16 in 10.0 mi Calm Calm - N/A   Scattered Clouds
11:55 PM 44.6 °F - 43.0 °F 94% 30.16 in 10.0 mi Calm Calm - N/A   Scattered Clouds